Location: Contre
(49.7477°N, 2.0963°E)
Time: 14:32:22
(UTC+00:00)

Meteor 2-12 Rocket - Pass Details

Date: 05 August 2024
Orbit: 936 x 956 km, 82.5° (Epoch: 14 September)

Event Time Altitude Azimuth Distance (km) Brightness Sun altitude
Rises 00:55:38 0° 351° (N) 3,610 8.6 -22.2°
Reaches altitude 10° 00:58:10 10° 354° (N) 2,663 7.8 -22.0°
Maximum altitude 01:04:13 66° 77° (ENE) 1,023 4.6 -21.8°
Enters shadow 01:07:24 29° 152° (SSE) 1,654 5.3 -21.6°
